Weather Service Report


200 
ASUS43 KBIS 171510
RWRND 

NORTH DAKOTA REGIONAL WEATHER ROUNDUP
NATIONAL WEATHER SERVICE BISMARCK ND
1000 AM CDT TUE OCT 17 2017

NOTE: "FAIR" INDICATES FEW OR NO CLOUDS BELOW 12,000 FEET WITH NO
SIGNIFICANT WEATHER AND/OR OBSTRUCTIONS TO VISIBILITY.


NDZ001>003-009>011-017-171600-
NORTHWEST NORTH DAKOTA
  
CITY           SKY/WX    TMP DP  RH WIND       PRES   REMARKS
WILLISTON      CLOUDY    49  33  54 SW7       29.83S                  
MINOT          MOSUNNY   54  33  45 SW13      29.80R                  
MINOT AFB      MOSUNNY   56  32  39 W14       29.77                   
$$
 
NDZ018>021-031>035-040>046-171600-
SOUTHWEST NORTH DAKOTA
  
CITY           SKY/WX    TMP DP  RH WIND       PRES   REMARKS
BISMARCK       SUNNY     46  35  65 CALM      29.91S                  
GARRISON         N/A     52  36  54 SW14      29.84S                  
HETTINGER ARPT SUNNY     53  29  39 W7        29.98S                  
$$
 
NDZ004>008-012>016-024-026-027-054-171600-
NORTHEAST NORTH DAKOTA
  
CITY           SKY/WX    TMP DP  RH WIND       PRES   REMARKS
GRAND FORKS    PTSUNNY   52  40  63 S13       29.86F                  
GRND FRKS AFB  CLOUDY    54  37  53 S10       29.86                   
DEVILS LAKE    CLOUDY    51  37  58 SW14      29.83S                  
$$
 
NDZ022-023-025-028>030-036>039-047>053-171600-
SOUTHEAST NORTH DAKOTA
  
CITY           SKY/WX    TMP DP  RH WIND       PRES   REMARKS
FARGO          SUNNY     48  38  68 S8        29.93F                  
JAMESTOWN      SUNNY     49  36  61 S9        29.89F                  
$$ 

  


202 
ASUS43 KBIS 171510
RWRBIS

NWR BROADCAST TEXT
NATIONAL WEATHER SERVICE BISMARCK ND
1000 AM CDT TUE OCT 17 2017

NOTE: "FAIR" INDICATES FEW OR NO CLOUDS BELOW 12,000 FEET WITH NO
SIGNIFICANT WEATHER AND/OR OBSTRUCTIONS TO VISIBILITY.

  
CITY           SKY/WX    TMP DP  RH WIND       PRES   REMARKS
WILLISTON      CLOUDY    49  33  54 SW7       29.83S                  
MINOT          MOSUNNY   54  33  45 SW13      29.80R                  
MINOT AFB      MOSUNNY   56  32  39 W14       29.77                   
BISMARCK       SUNNY     46  35  65 CALM      29.91S                  
DICKINSON      NOT AVBL                                               
GARRISON         N/A     52  36  54 SW14      29.84S                  
HETTINGER ARPT SUNNY     53  29  39 W7        29.98S                  
JAMESTOWN      SUNNY     49  36  61 S9        29.89F                  
CARRINGTON     FAIR      59  32  36 SW15G21   29.87F                  
HAZEN          FAIR      46  34  61 CALM      29.89S                  
LINTON           N/A     52  32  46 VRB6      29.96F                  
RUGBY          FAIR      48  36  61 SW5       29.80S                  
STANLEY        FAIR      55  30  38 W16       29.84S                  
TIOGA          FAIR      52  30  43 SW13      29.83R                  
WATFORD CITY   FAIR      50  32  50 SW10      29.85S                  
$$
  
CITY           SKY/WX    TMP DP  RH WIND       PRES   REMARKS
GRAND FORKS    PTSUNNY   52  40  63 S13       29.86F                  
GRAND FORKS AF CLOUDY    54  37  53 S10       29.86                   
DEVILS LAKE    CLOUDY    51  37  58 SW14      29.83S                  
FARGO          SUNNY     48  38  68 S8        29.93F                  
CANDO          FAIR      46  39  76 SW7       29.83S                  
CAVALIER       FAIR      52  37  58 S15       29.78F                  
GRAFTON        FAIR      50  37  62 S8        29.84F                  
GWINNER          N/A     46  39  76 SW10      29.95F                  
LANGDON        FAIR      50  37  62 SW17      29.79F                  
ROLLA          FAIR      46  34  61 SW16      29.78S                  
WALHALLA       FAIR     N/A N/A N/A SW12      29.77S                  
$$
  
CITY           SKY/WX    TMP DP  RH WIND       PRES   REMARKS
ABERDEEN       SUNNY     47  39  74 S7        29.98F                  
MOBRIDGE       SUNNY     49  39  68 S9        29.95R                  
BUFFALO          N/A     53  28  38 W9        29.94R                  
RAPID CITY     SUNNY     58  27  30 W5        30.06S                  
GLASGOW        MOSUNNY   52  27  38 SW7       29.82F                  
SIDNEY         CLOUDY    47  32  56 S12       29.86S                  
WOLF POINT     CLOUDY    47  35  63 CALM      29.84S                  
GLENDIVE       SUNNY     54  30  40 SW14      29.91F                  
MILES CITY       N/A     45  30  55 S9        29.96S                  
BAKER          SUNNY     55  28  35 SW13      29.98R                  
$$
  
CITY           SKY/WX    TMP DP  RH WIND       PRES   REMARKS
BILLINGS       MOSUNNY   52  22  30 SW15      30.02S                  
GREAT FALLS    SUNNY     56  21  25 SW20      29.91F                  
REGINA         PTSUNNY   52  30  43 SW9       29.67S                  
$$

  

Return to Home page


Western Regional Climate Center, wrcc@dri.edu